Location: Newark
(48.5667°N, 7.8167°E)
Time: 05:06:49
(UTC+00:00)

JY1SAT - Pass Details

Date: 23 July 2021
Orbit: 568 x 591 km, 97.7° (Epoch: 19 September)

Event Time Altitude Azimuth Distance (km) Brightness Sun altitude
Exits shadow 22:20:06 10° 234° (SW) 1,895 ? -19.5°
Maximum altitude 22:22:32 15° 270° (W) 1,589 ? -19.7°
Drops below altitude 10° 22:25:02 10° 308° (NW) 1,920 ? -19.8°
Sets 22:28:01 0° 331° (NNW) 2,831 ? -19.9°
